SCP
2 2 2 2 2 2 3 3 3 3 3 3 2 2 2 2 1 1 1 1 1 2 3 3 3 2 2 2 2 1 1 1 1 1 1 1 1 1 1 0 0 0 0
3 3 2 2 2 2 2 3 3 4 4 3 2 2 2 2 2 1 1 1 1 2 3 4 4 3 2 2 2 1 1 1 1 1 1 1 1 1 1 1 0 0 0
3 3 3 3 3 3 3 3 3 4 4 4 3 2 2 2 2 1 1 1 1 2 3 4 4 3 2 2 2 2 2 1 1 1 1 1 1 1 1 1 1 1 1
3 3 3 3 3 3 3 3 4 4 4 3 3 2 2 2 2 2 1 1 1 1 3 4 3 3 2 2 2 2 2 2 1 1 1 1 1 1 1 1 1 1 1
2 2 2 3 3 3 3 4 4 3 3 2 2 2 2 2 2 2 2 1 1 1 2 2 2 2 2 2 2 2 2 2 1 1 1 1 1 1 1 1 1 1 1
2 1 1 2 2 2 3 4 4 3 2 2 2 2 2 2 2 2 2 1 1 1 1 1 2 2 2 2 2 2 2 2 2 1 1 1 1 1 1 1 1 1 1
1 1 1 1 1 1 2 2 2 2 2 2 2 1 1 2 2 1 1 1 1 1 1 1 1 2 2 2 2 2 2 2 2 2 2 1 1 1 1 1 1 1 1
1 1 1 1 1 1 1 1 1 1 2 2 1 1 1 1 1 1 1 1 1 1 1 1 1 1 1 1 2 2 2 2 2 2 2 2 1 1 1 1 1 1 1
1 1 1 1 0 0 0 0 1 1 1 1 1 1 1 1 1 1 1 1 1 1 1 1 1 1 1 1 1 1 2 2 2 2 2 2 1 1 1 1 1 1 1
0 1 1 0 0 0 0 0 0 0 0 1 1 1 1 1 1 1 1 1 1 1 1 1 1 1 1 1 1 1 1 1 2 2 2 2 1 1 1 1 1 1 1
0 0 0 0 0 0 0 0 0 0 0 0 0 0 0 0 0 0 0 0 0 1 1 1 1 1 1 1 1 1 1 1 1 1 2 2 2 1 1 1 1 1 1
0 0 0 0 0 0 0 0 0 0 0 0 0 0 0 0 0 0 0 0 0 0 0 1 1 1 1 1 1 1 1 1 1 1 1 2 2 1 1 1 1 1 1
0 0 0 0 0 0 0 0 0 0 0 0 0 0 0 0 0 0 0 0 0 0 0 0 0 1 1 1 1 1 1 1 1 1 1 1 1 1 1 1 1 1 1
0 0 0 0 0 0 0 0 0 0 0 0 0 0 0 0 0 0 0 0 0 0 0 0 0 0 0 0 0 1 1 1 1 0 1 1 1 1 1 1 1 1 1
0 0 0 0 0 0 0 0 0 0 0 0 0 0 0 0 0 0 0 0 0 0 0 0 0 0 0 0 0 1 1 1 0 0 0 0 0 0 0 1 0 0 0
0 0 0 0 0 0 0 0 0 0 0 0 0 0 0 0 0 0 0 0 0 0 0 1 1 1 0 0 0 0 1 1 0 0 0 0 0 0 0 0 0 0 0
0 0 0 0 0 0 0 0 0 0 0 0 0 0 0 0 0 0 0 0 0 0 1 1 1 1 1 0 0 0 0 0 0 0 0 0 0 0 0 0 0 0 0
0 0 0 0 0 0 0 0 0 0 0 0 0 0 0 0 0 0 0 0 0 0 1 1 1 1 1 1 0 0 0 0 0 0 0 0 0 0 0 0 0 0 0
0 0 0 0 0 0 0 0 0 0 0 0 0 0 0 0 0 0 0 0 0 1 1 1 1 1 1 1 1 0 0 0 0 0 0 0 0 0 0 0 0 0 0
0 0 0 0 0 0 0 0 0 0 0 0 0 0 0 0 0 0 0 0 0 1 1 1 1 1 1 1 1 0 0 0 0 0 0 0 0 0 0 0 0 0 0
0 0 0 0 0 0 0 0 0 0 0 0 0 0 0 0 0 0 0 0 0 1 1 1 1 1 1 1 1 0 0 0 0 0 0 0 0 0 0 0 0 0 0
0 0 0 0 0 0 0 0 0 0 0 0 0 0 0 0 0 0 0 0 0 0 0 1 1 1 1 1 1 1 0 0 0 0 0 0 0 0 0 0 0 0 0
0 0 0 0 0 0 0 0 0 0 0 0 0 0 0 0 0 0 0 0 0 0 0 0 1 1 1 1 1 1 0 0 0 0 0 0 0 0 0 0 0 0 0
0 0 0 0 0 0 0 0 0 0 0 0 0 0 0 0 0 0 0 0 0 0 0 0 0 0 0 1 1 1 0 0 0 0 0 0 0 0 0 0 0 0 0
0 0 0 0 0 0 0 0 0 0 0 0 0 0 0 0 0 0 0 0 0 0 0 0 0 0 0 0 1 1 0 0 0 0 0 0 0 0 0 0 0 0 0
0 0 0 0 0 0 0 0 0 0 0 0 0 0 0 0 0 0 0 0 0 0 0 0 0 0 0 0 0 1 1 0 0 0 0 0 0 0 0 0 0 0 0
Wind_Speed
4 3 3 3 4 4 5 6 6 7 8 9 9 9 9 9 8 7 5 12 15 18 20 21 21 21 20 20 20 19 19 19 18 17 16 16 15 14 14 14 13 12 12
3 3 3 3 3 4 4 5 7 7 7 7 8 8 8 8 8 8 7 8 14 17 19 21 21 21 21 21 21 20 20 19 18 17 17 17 16 15 15 14 14 13 13
2 2 2 3 3 3 4 4 6 5 6 7 8 8 7 8 8 9 8 6 7 14 18 20 20 20 21 22 22 21 20 19 18 18 18 17 17 16 15 15 15 14 14
1 1 2 3 3 3 3 3 4 4 5 5 6 6 6 6 9 9 8 7 6 7 13 19 20 21 22 23 23 22 20 19 19 19 18 18 18 17 17 16 16 15 15
0 0 1 2 3 3 3 4 3 3 4 5 6 6 6 7 7 9 9 10 9 8 7 13 20 22 23 24 23 22 21 20 19 19 20 19 19 18 17 17 17 16 16
0 0 1 3 3 3 3 3 3 3 4 5 7 7 6 6 6 7 9 8 8 10 10 10 10 14 22 21 20 20 21 21 20 20 20 20 20 19 18 18 17 17 17
1 1 2 2 2 3 4 4 3 4 4 3 3 4 4 6 7 7 7 7 9 10 10 10 8 7 9 18 19 19 20 20 20 20 20 20 20 19 18 18 18 17 17
2 2 2 2 2 2 4 3 3 2 3 3 3 2 2 3 4 8 6 7 8 7 9 11 9 10 8 6 11 18 19 19 20 20 19 19 19 18 18 18 18 17 17
3 3 3 2 2 2 2 3 3 3 3 2 2 3 2 4 2 3 5 6 6 6 7 7 10 10 10 7 7 14 18 18 18 20 19 18 18 17 18 18 18 18 18
4 4 3 3 2 1 2 3 2 2 2 2 2 2 3 2 2 2 2 2 5 6 6 7 8 9 9 7 8 12 16 17 17 18 18 17 17 17 17 18 18 19 18
4 4 3 3 2 2 2 2 2 2 2 2 2 2 2 2 2 2 2 1 1 2 4 5 5 6 7 7 7 10 15 15 15 16 15 15 16 16 17 17 18 19 19
3 4 3 3 3 3 3 2 2 2 2 2 2 2 1 1 1 1 2 2 2 2 2 3 4 5 5 7 10 13 14 14 14 14 14 14 14 15 16 17 18 18 18
3 4 3 3 3 4 4 3 2 2 2 2 2 1 1 1 1 1 2 2 2 1 1 1 3 4 5 4 6 12 12 13 13 13 12 12 12 13 14 15 16 16 16
4 5 5 4 5 5 4 3 3 3 2 2 2 2 1 1 1 1 2 2 1 1 1 2 1 2 3 4 6 9 6 11 12 11 11 10 10 10 11 12 12 13 13
4 5 5 5 5 5 5 4 3 4 3 3 3 3 2 1 1 2 2 2 3 3 2 1 0 1 2 3 6 4 4 8 10 10 9 9 9 9 9 10 11 10 11
4 5 5 5 5 5 6 5 5 5 4 4 3 3 3 2 2 2 2 2 2 3 2 2 1 1 2 4 5 4 4 8 8 8 7 7 7 7 7 8 8 9 9
5 5 6 6 6 6 6 5 6 6 6 6 5 5 5 4 3 2 2 2 2 2 3 2 1 1 2 5 4 4 4 4 4 6 6 6 6 5 5 6 6 7 7
6 6 6 6 6 6 6 6 7 7 7 8 7 6 6 4 4 3 3 3 3 3 3 3 2 1 2 5 6 6 5 5 4 6 7 6 6 6 5 5 5 5 5
6 6 6 6 7 7 7 7 7 7 8 8 8 7 7 6 6 4 4 4 4 3 3 3 3 2 2 4 5 4 5 4 4 6 7 7 7 7 6 5 5 5 4
7 7 7 7 7 7 7 7 7 8 8 8 8 8 8 8 8 7 5 6 5 4 3 3 3 3 3 4 5 5 4 3 3 4 5 6 7 8 7 6 5 5 4
8 7 7 7 7 6 7 7 7 8 8 8 8 8 9 11 11 9 6 6 6 5 4 4 4 3 4 5 5 4 5 5 3 3 4 3 3 3 3 4 5 5 4
7 7 7 7 7 8 9 10 8 6 6 7 8 8 8 10 12 14 13 11 10 8 6 5 4 5 5 5 4 6 6 6 4 4 4 3 3 3 2 2 3 5 5
7 7 7 7 8 9 13 13 13 7 7 7 7 7 8 9 10 8 10 12 12 12 10 7 6 6 6 6 7 7 6 6 4 7 5 3 2 2 2 2 4 5 6
7 7 8 8 8 10 13 13 14 9 7 8 8 8 8 7 8 8 8 7 6 6 8 6 6 6 5 6 7 7 6 5 4 4 4 4 3 3 2 2 3 6 7
7 7 7 7 8 10 12 13 12 6 6 8 8 8 9 8 10 12 9 8 6 5 6 8 8 8 8 8 7 6 7 7 5 4 3 4 4 3 2 2 2 6 7
8 7 7 7 8 9 11 13 12 5 6 6 6 7 11 11 11 13 9 9 8 6 5 6 6 6 6 7 10 8 7 7 5 4 4 5 5 5 4 1 1 2 4
Wind_Direction
221 230 235 235 231 222 214 215 218 219 221 224 222 219 221 219 216 218 225 227 218 209 206 206 204 204 202 200 199 200 201 201 199 198 197 198 197 195 193 193 190 188 188
211 223 240 247 242 230 224 221 223 225 223 226 229 225 222 220 219 220 222 226 220 211 209 210 209 209 208 206 204 203 204 204 202 201 201 200 199 199 199 198 196 194 193
206 223 242 254 252 242 239 237 234 232 231 229 233 231 227 223 220 219 221 222 219 216 211 213 211 211 212 211 210 207 206 206 204 203 203 202 201 200 200 201 201 199 197
141 227 249 258 262 257 244 238 234 230 232 226 228 233 230 224 222 219 217 219 216 216 216 217 215 215 215 215 214 212 209 208 206 205 205 204 205 204 204 204 204 202 200
106 215 261 268 277 275 264 259 244 226 237 237 237 234 232 226 223 222 216 216 213 210 207 216 217 218 218 217 216 214 212 210 209 208 208 208 208 207 207 207 207 205 203
7 311 283 285 285 279 273 263 257 239 235 237 249 247 234 230 223 219 219 216 213 212 209 210 215 222 220 217 217 216 215 213 211 211 211 211 211 209 208 208 208 207 206
295 284 291 295 298 281 272 263 254 253 248 224 232 254 254 238 230 226 219 212 212 212 208 207 206 209 216 218 217 217 217 216 214 213 213 213 213 211 209 208 209 209 209
285 279 274 280 289 291 292 278 260 254 258 211 194 218 262 270 245 231 216 213 212 205 207 208 204 203 204 204 213 216 218 219 218 216 215 214 213 212 210 210 209 210 211
282 272 263 259 273 279 290 288 268 246 250 255 202 194 202 229 255 255 222 216 207 200 204 202 202 202 202 200 202 214 217 217 218 219 216 214 212 211 211 212 210 211 212
296 279 264 252 249 254 285 298 306 262 241 248 257 233 225 210 197 264 292 232 209 201 199 205 203 201 200 197 202 204 211 213 215 217 216 214 212 210 210 212 213 213 213
302 290 267 246 238 240 254 281 303 302 270 249 237 239 244 248 214 184 231 257 253 221 202 200 196 196 195 194 197 205 205 207 210 212 213 213 212 210 211 213 217 217 216
295 295 275 247 237 234 240 252 266 288 293 284 256 222 211 223 227 191 198 209 219 245 223 203 195 191 192 190 198 198 198 200 202 206 208 211 212 212 213 215 219 221 220
278 273 268 252 245 241 240 238 245 256 269 285 277 248 220 225 222 206 188 199 209 254 241 221 209 190 187 179 192 193 197 196 197 200 203 206 210 212 214 216 219 221 221
256 263 261 249 245 242 239 228 229 242 243 252 264 259 229 227 220 212 190 177 184 235 232 233 230 192 181 170 180 175 181 185 188 193 198 201 206 210 212 213 216 219 220
270 274 268 260 253 247 241 231 229 236 237 243 246 245 233 235 226 224 208 181 173 186 219 231 209 203 158 145 157 151 151 171 176 183 190 195 201 208 212 213 214 214 215
278 284 279 269 262 255 245 233 235 236 231 239 234 233 230 221 228 217 207 202 193 179 200 214 200 170 146 139 138 137 140 146 156 164 171 179 186 193 200 201 202 204 207
274 270 268 266 264 259 251 238 236 235 230 236 236 229 232 221 215 216 203 195 199 185 200 225 222 145 127 137 129 126 122 120 125 136 145 153 159 167 177 183 189 195 201
270 265 264 262 261 260 250 240 242 241 229 229 230 225 229 225 215 212 204 201 200 202 196 203 199 168 140 154 142 135 127 116 111 120 124 128 130 134 144 157 169 178 188
271 269 264 258 257 256 250 243 238 238 233 229 224 219 221 213 217 213 206 202 203 204 196 194 200 178 146 151 137 125 115 108 110 116 112 110 112 112 116 125 136 143 155
273 269 264 259 255 253 251 248 244 239 235 232 225 220 217 209 211 206 207 205 198 195 191 189 190 176 159 154 146 145 139 130 127 119 105 101 102 99 102 107 114 121 131
281 272 267 264 258 255 254 250 244 246 235 233 230 225 222 217 215 207 202 199 194 190 188 189 189 179 167 166 167 160 154 143 122 128 123 114 101 92 88 97 101 111 123
279 275 268 263 261 266 268 264 250 247 239 231 231 230 231 226 221 215 211 202 193 189 190 187 189 187 184 175 161 161 154 158 166 161 139 131 115 103 84 77 101 116 121
276 274 270 264 258 258 259 259 254 243 234 231 229 226 234 228 213 209 211 209 207 205 193 183 187 192 184 177 167 171 176 168 162 160 139 133 124 107 80 78 112 120 122
274 271 270 265 260 263 262 257 255 245 235 231 227 221 220 224 212 200 197 197 197 203 202 193 189 194 190 180 176 175 169 143 109 143 139 132 132 110 89 64 106 120 123
280 274 269 264 261 265 262 257 252 241 235 234 231 225 216 219 216 197 187 190 195 207 210 203 194 192 187 180 167 153 157 157 153 161 154 128 131 116 101 80 89 115 123
280 282 278 268 262 263 262 257 247 232 234 235 232 228 219 213 211 195 189 187 193 200 190 192 199 200 191 185 178 172 168 168 155 159 163 134 138 135 127 111 103 108 113